KTXEAGLE7 Weather Reports


time (UTC)temp
F
wind
direction
speed
knots
gust
knots
rain 1hr
in
rain 24hr
in
rain mn
in
humidity
%
barometer
mb
20260504193025 78 198 8.7 15.6 0.00 0.00 0.00 72 1013.7
20260504191521 78 186 8.7 14.8 0.00 0.00 0.00 67 1014.0
20260504190020 78 182 7.0 14.8 0.00 0.00 0.00 71 1014.1
20260504184520 78 196 7.0 14.8 0.00 0.00 0.00 70 1014.2
20260504183018 77 176 7.0 14.8 0.00 0.00 0.00 69 1014.4
20260504181515 77 175 9.6 13.9 0.00 0.00 0.00 69 1014.7
20260504180014 77 188 10.4 14.8 0.00 0.00 0.00 69 1014.6
20260504174512 76 178 7.0 14.8 0.00 0.00 0.00 71 1014.9
20260504173011 76 168 7.0 15.6 0.00 0.00 0.00 71 1015.1
20260504171532 76 182 7.0 13.0 0.00 0.00 0.00 73 1015.1
20260504081522 59 162 0.0 0.0 0.00 0.00 0.00 93 1016.8
20260504044538 62 182 2.6 5.2 0.00 0.00 0.00 85 1019.3
20260504043031 63 182 2.6 4.3 0.00 0.00 0.00 84 1019.3
20260504041532 63 182 2.6 3.5 0.00 0.00 0.00 85 1019.2
20260504040029 63 182 1.7 3.5 0.00 0.00 0.00 85 1019.3
20260504034529 63 182 2.6 5.2 0.00 0.00 0.00 83 1019.3
20260504033028 64 184 3.5 5.2 0.00 0.00 0.00 82 1019.2
20260504031528 64 180 2.6 5.2 0.00 0.00 0.00 81 1019.2
20260504030037 65 192 4.3 6.1 0.00 0.00 0.00 79 1019.3
20260504024527 66 177 2.6 4.3 0.00 0.00 0.00 77 1018.9
20260504023028 66 188 4.3 7.8 0.00 0.00 0.00 75 1018.8
20260504021528 67 175 4.3 7.8 0.00 0.00 0.00 74 1018.7
20260504020028 67 165 5.2 11.3 0.00 0.00 0.00 72 1018.7
20260504014526 68 161 6.1 9.6 0.00 0.00 0.00 70 1018.7
20260504013025 69 181 6.1 10.4 0.00 0.00 0.00 70 1018.6
20260504011524 70 157 7.0 13.0 0.00 0.00 0.00 68 1018.4
20260504010023 71 198 3.5 6.1 0.00 0.00 0.00 72 1018.4
20260504004524 72 154 4.3 9.6 0.00 0.00 0.00 65 1018.4
20260504003022 74 157 6.1 11.3 0.00 0.00 0.00 62 1018.2
20260504001522 74 167 5.2 8.7 0.00 0.00 0.00 60 1018.4
20260504000021 75 159 7.0 12.2 0.00 0.00 0.00 58 1018.3
20260503234534 75 159 7.0 10.4 0.00 0.00 0.00 59 1018.3
20260503233019 76 142 6.1 9.6 0.00 0.00 0.00 51 1018.4
20260503231517 77 126 6.1 9.6 0.00 0.00 0.00 48 1018.7
20260503230016 77 134 6.1 9.6 0.00 0.00 0.00 45 1018.9
20260503224515 77 161 4.3 10.4 0.00 0.00 0.00 45 1019.1
20260503223012 77 146 4.3 9.6 0.00 0.00 0.00 45 1019.1
20260503221510 77 141 3.5 7.8 0.00 0.00 0.00 44 1019.4
20260503220024 77 133 4.3 8.7 0.00 0.00 0.00 44 1019.4
20260503214508 77 163 5.2 10.4 0.00 0.00 0.00 43 1019.6
20260503213009 76 154 5.2 10.4 0.00 0.00 0.00 48 1019.7
20260503211503 77 127 5.2 10.4 0.00 0.00 0.00 45 1020.1
20260503210001 77 169 6.1 11.3 0.00 0.00 0.00 44 1020.3
20260503204559 77 148 7.0 13.9 0.00 0.00 0.00 48 1020.6
20260503203103 76 137 5.2 11.3 0.00 0.00 0.00 41 1020.9
20260503201556 76 79 3.5 12.2 0.00 0.00 0.00 46 1020.8
20260503200057 76 150 7.0 13.0 0.00 0.00 0.00 43 1021.2
20260503194552 76 103 8.7 11.3 0.00 0.00 0.00 43 1021.4